Temperature
18 17 17 17 17 17 17 16 16 16 16 16 15 15 14 14 14 14 14 14 13 13 13 13 13 13 13 13 13 13 13 13 13 13 13 13 13 13 13 13 12 12 12
18 18 17 17 17 17 16 16 16 16 16 15 15 15 15 14 14 14 14 14 14 13 13 13 13 13 13 13 13 13 13 13 13 13 13 13 13 13 13 13 12 12 12
18 18 17 17 17 16 16 16 16 16 16 15 15 15 15 14 14 14 14 14 13 13 13 13 13 13 13 13 13 12 12 12 12 12 12 12 13 13 13 13 12 12 12
18 18 17 17 17 17 16 16 16 16 16 15 15 15 15 15 14 14 14 14 14 13 13 13 13 13 13 13 12 12 12 12 12 12 12 12 13 13 13 12 12 12 12
18 18 18 17 17 17 16 16 16 16 16 16 15 15 15 15 15 14 14 14 14 14 14 13 13 13 13 13 12 12 12 12 12 12 12 12 12 12 12 12 12 12 12
19 18 18 17 17 17 16 16 16 16 16 15 15 15 15 15 15 15 15 15 14 14 14 14 13 13 13 13 13 13 12 12 12 12 12 12 12 12 12 11 11 11 11
19 19 18 18 17 17 17 16 16 16 16 16 15 15 15 15 15 15 15 15 15 14 14 14 13 13 13 13 13 13 12 12 12 12 12 12 12 12 11 11 11 11 11
19 19 18 18 17 17 16 16 16 16 16 16 15 15 15 15 15 15 15 15 15 15 14 14 14 14 13 13 13 13 12 12 12 12 12 12 12 12 11 11 11 11 11
19 19 18 18 17 17 16 16 16 16 16 16 15 15 15 15 15 15 15 15 15 15 15 14 14 14 14 13 13 13 13 12 12 12 12 12 12 11 11 11 10 10 10
19 18 18 18 17 17 17 16 16 16 16 16 15 15 15 15 15 15 15 15 14 14 14 14 14 14 14 13 13 13 13 13 12 12 12 11 11 11 11 11 11 10 10
19 18 18 18 17 17 17 16 16 16 15 15 15 15 15 15 15 15 15 14 14 14 14 14 14 14 13 13 13 13 13 12 12 12 12 11 11 11 11 11 11 11 11
18 18 18 17 17 16 16 16 15 15 15 15 15 15 15 15 15 15 15 14 14 14 14 13 13 13 13 13 13 13 12 12 12 11 11 11 11 11 11 11 11 11 11
18 17 17 17 16 16 16 15 15 15 14 14 14 14 14 14 14 14 14 14 14 13 13 13 13 13 12 12 12 12 12 12 12 11 11 11 11 11 11 11 11 11 11
17 16 16 16 16 16 15 15 15 14 14 14 14 14 14 14 14 14 14 13 13 13 12 12 12 12 12 12 12 12 12 12 12 11 11 11 11 11 11 11 11 11 11
16 16 16 15 15 15 15 15 14 14 14 14 14 14 14 14 14 13 13 13 13 12 12 12 12 11 11 12 12 12 12 11 11 11 11 11 11 11 11 11 11 11 11
15 15 15 15 15 14 14 14 14 14 14 14 14 14 14 14 13 13 13 12 12 12 11 11 11 11 11 11 11 11 12 12 12 11 11 11 11 11 11 11 11 11 11
14 14 14 14 14 14 14 14 14 14 14 14 13 13 13 13 13 12 12 12 12 11 11 11 11 11 11 11 11 11 12 12 12 11 11 11 11 11 11 11 10 10 10
13 14 14 13 13 13 13 13 13 13 13 13 13 13 13 13 12 12 12 11 11 11 11 11 11 11 11 11 11 11 11 11 11 11 11 11 11 10 10 10 10 10 10
13 13 13 13 13 13 13 13 13 13 13 13 13 12 12 12 12 12 11 11 11 11 10 10 10 11 11 11 11 10 10 10 10 10 10 10 10 10 10 10 10 10 10
13 13 13 13 13 13 13 13 13 12 12 12 12 12 11 11 11 11 11 11 11 10 10 10 10 10 10 10 10 10 10 10 10 10 10 10 10 9 9 9 9 9 9
12 12 12 12 12 12 12 12 12 12 12 11 11 11 11 11 10 10 10 10 10 10 10 9 9 9 9 9 9 9 9 9 9 9 9 9 9 9 9 9 9 9 9
12 12 12 12 12 12 12 11 11 11 11 11 11 10 10 10 10 10 10 10 9 9 9 9 9 8 8 8 8 8 8 8 8 8 8 8 8 9 8 8 8 8 8
11 11 12 12 11 11 11 11 11 10 10 10 10 10 9 9 9 9 9 9 8 8 8 8 8 8 8 8 8 8 8 8 8 8 8 8 8 8 8 8 8 8 8
11 11 11 11 11 11 10 10 10 10 10 9 9 9 9 8 8 8 8 8 7 7 7 7 7 7 7 7 7 7 7 7 7 7 7 7 7 7 7 7 7 7 7
10 10 10 10 10 10 10 9 9 9 9 9 8 8 8 8 7 7 7 7 7 6 6 6 6 6 6 6 6 6 6 6 6 6 6 6 6 6 6 7 7 7 7
9 9 9 9 9 9 9 8 8 8 8 8 7 7 7 7 6 6 6 6 6 6 6 6 6 6 6 5 6 6 6 6 6 6 6 6 6 6 6 6 6 6 6
Wind_Speed
11 10 9 9 8 7 6 6 5 5 6 6 6 6 6 6 5 4 4 3 4 4 4 3 3 3 2 3 3 3 3 2 4 4 4 3 3 4 5 8 11 12 14
12 10 9 9 9 9 8 7 7 7 6 7 7 7 7 7 7 6 6 5 5 5 5 4 4 5 4 4 4 4 4 4 4 6 5 5 6 5 5 5 8 11 12
13 12 10 10 10 9 9 9 8 8 8 7 7 7 7 6 6 6 6 5 5 5 5 5 5 5 5 4 4 5 4 5 3 5 6 5 5 6 5 5 7 6 11
13 13 12 11 10 10 9 9 9 8 8 8 7 7 7 7 7 7 7 6 6 6 6 6 6 6 6 5 6 6 5 5 5 6 6 6 5 5 3 4 5 4 6
13 13 12 12 11 10 9 9 9 9 10 8 8 8 7 7 8 8 7 8 7 7 6 6 7 8 7 6 6 4 4 4 5 5 6 5 5 4 4 4 5 5 6
13 12 12 11 11 11 10 9 9 9 9 8 9 8 9 9 9 9 7 5 5 6 7 7 8 8 11 12 12 11 9 7 7 6 6 6 6 6 5 5 5 5 6
12 12 12 12 12 12 12 11 10 10 9 8 9 9 9 8 9 10 10 6 6 6 7 7 9 9 8 9 12 15 14 16 14 10 10 10 9 7 6 7 6 7 7
12 11 12 12 12 11 10 10 10 9 9 8 8 9 8 10 13 14 12 8 7 8 8 9 8 9 9 8 7 8 10 11 14 13 12 13 12 10 9 8 8 8 9
12 11 11 11 11 11 11 10 9 8 8 9 8 9 9 10 14 15 13 7 8 10 11 11 11 10 12 12 9 9 9 9 13 17 18 18 19 18 12 7 7 8 10
8 8 8 10 10 11 10 9 8 8 8 8 8 9 9 9 13 16 15 8 9 9 9 11 15 15 14 14 11 10 11 10 10 10 9 12 14 15 18 13 11 10 10
6 5 5 6 7 7 7 6 6 8 8 8 8 8 9 10 12 17 17 10 9 8 8 8 7 11 15 15 13 11 13 10 8 8 9 9 9 10 11 12 12 12 12
5 5 6 6 6 6 5 6 6 7 8 9 8 8 7 8 9 13 18 17 13 9 8 7 6 5 8 11 12 14 16 12 9 9 10 9 9 9 9 10 11 13 14
3 3 4 5 4 4 5 5 5 5 6 6 6 7 6 5 7 11 16 18 18 11 10 11 11 11 10 9 14 17 14 10 10 11 12 11 10 10 9 8 8 10 12
3 2 2 3 3 3 3 5 5 5 5 5 4 5 4 4 3 3 5 8 11 11 11 11 13 15 14 15 13 12 11 12 12 12 10 10 9 9 9 8 8 8 9
3 2 2 2 3 3 4 3 4 3 4 4 4 4 4 4 2 2 3 4 5 5 5 7 9 9 9 9 10 11 11 10 12 12 12 11 10 9 9 8 8 8 9
3 2 1 0 1 1 2 3 4 5 5 6 6 5 4 4 3 4 5 6 7 5 4 8 9 10 10 10 10 9 9 10 11 11 11 11 10 10 10 9 8 8 9
3 3 2 2 2 2 2 3 4 5 7 8 10 10 9 9 8 8 8 6 6 5 6 10 10 10 10 10 10 10 9 8 7 8 8 9 9 9 9 9 9 9 9
3 1 1 2 2 3 3 4 4 4 3 4 7 11 13 13 13 12 9 4 6 7 9 11 11 10 9 9 9 9 8 7 7 7 8 8 7 8 8 9 9 9 9
4 3 2 3 3 3 4 4 4 4 4 4 4 4 7 9 10 10 6 6 9 10 10 9 9 8 8 7 7 7 8 8 8 7 7 8 7 8 8 9 9 11 10
2 4 4 4 5 4 4 5 5 5 5 5 5 4 2 3 4 5 5 7 8 9 9 9 8 7 7 7 7 7 8 8 8 8 8 8 8 7 8 9 9 9 8
5 4 4 5 5 5 5 5 6 6 6 6 5 5 5 6 7 8 7 6 6 7 7 7 7 8 8 7 7 8 9 8 8 8 8 8 8 7 7 8 9 9 8
7 6 5 6 5 5 5 6 6 6 7 8 7 6 6 6 7 8 7 7 7 6 6 7 7 8 7 7 7 7 8 9 7 7 7 7 7 8 7 7 7 8 8
7 8 7 6 6 5 5 5 6 6 7 7 8 8 7 6 7 7 8 8 6 6 7 6 7 8 7 7 6 7 8 7 6 7 7 8 8 7 7 7 8 9 9
8 8 8 8 7 7 7 6 7 7 8 8 8 8 7 7 7 8 8 8 8 7 7 7 7 10 11 8 7 6 5 5 6 6 8 8 8 8 8 8 8 10 9
8 8 8 7 7 7 7 7 7 7 8 8 8 8 9 9 9 9 8 8 9 8 10 10 8 9 10 12 10 7 5 5 5 6 7 8 9 10 10 10 9 9 9
8 8 8 8 7 8 7 7 8 8 8 8 8 8 9 9 9 9 9 9 9 9 9 9 10 11 12 10 9 7 5 5 6 7 7 7 9 10 10 9 11 10 10
Wind_Direction
178 185 175 172 172 170 177 168 154 149 148 163 174 179 180 184 189 195 239 204 194 226 247 228 226 263 283 305 297 291 283 286 291 298 307 313 297 270 271 270 274 269 264
181 182 178 174 175 179 182 173 170 169 173 181 186 191 197 194 192 198 226 225 208 217 229 234 236 248 228 255 279 284 281 271 263 278 286 285 275 263 247 245 266 275 275
182 183 181 180 182 186 182 177 179 181 189 192 190 197 210 203 196 205 220 234 228 230 231 230 235 245 244 246 259 273 284 288 285 282 284 276 270 267 258 259 264 268 276
181 185 184 186 185 189 184 179 184 188 193 195 195 201 209 212 207 206 214 225 232 239 237 235 238 240 238 238 250 251 261 275 277 273 271 273 268 267 267 265 274 270 276
181 186 185 186 185 187 187 184 187 193 200 196 199 205 210 217 217 209 210 219 220 233 240 236 237 235 234 231 250 263 280 278 283 284 284 289 287 303 296 292 290 290 279
183 187 183 185 187 190 191 190 190 196 205 199 202 209 214 223 207 196 200 233 230 233 238 240 245 232 223 222 232 238 238 248 258 268 278 279 285 291 297 297 292 292 290
185 187 184 187 191 193 197 194 196 198 203 207 206 211 217 212 194 187 195 215 245 254 252 247 253 251 225 221 226 234 240 243 240 245 259 265 272 278 287 290 285 284 281
187 190 187 188 193 191 195 195 195 197 202 209 214 217 220 215 196 195 197 213 237 248 253 252 248 252 257 243 242 237 232 236 234 235 240 249 255 257 258 263 270 275 269
192 194 191 189 194 193 197 199 195 195 202 209 215 221 223 221 199 199 195 214 231 241 245 247 244 242 239 232 235 245 252 254 255 249 232 236 243 250 252 261 265 270 275
188 186 190 186 193 195 196 198 197 198 205 212 219 222 225 225 204 202 200 221 236 243 243 241 241 240 240 226 228 237 246 249 257 270 259 251 249 251 246 238 244 254 264
168 158 166 173 184 193 191 193 197 204 212 218 224 222 223 226 211 204 203 218 237 247 252 251 247 236 233 231 229 237 244 249 257 262 265 261 252 247 242 232 225 232 245
153 155 158 162 185 192 185 194 199 209 215 221 227 234 232 228 220 208 208 216 232 247 259 268 276 266 245 245 243 247 252 257 260 262 262 260 259 256 247 236 226 223 229
133 149 158 164 176 181 181 192 202 212 225 232 233 238 242 240 222 209 210 220 230 238 256 265 277 277 270 257 245 245 248 250 250 255 258 258 256 255 253 249 241 234 233
128 135 143 163 180 191 193 203 213 217 223 235 243 247 251 252 244 212 213 227 234 242 256 268 271 264 258 255 258 250 239 240 242 250 254 258 259 259 257 254 254 249 249
75 99 156 190 200 199 202 210 216 216 208 222 247 259 262 259 236 192 212 231 238 241 255 261 263 263 258 254 248 245 243 238 239 244 250 256 259 261 260 257 258 260 259
55 39 3 278 193 233 227 231 226 230 219 226 237 251 270 257 246 245 235 232 234 231 236 258 261 262 264 266 267 263 253 249 248 246 245 247 251 254 259 260 259 257 259
41 27 360 346 340 317 295 273 268 252 244 248 247 247 248 261 271 268 263 263 255 216 240 259 263 264 265 267 267 267 266 260 256 259 260 256 255 255 256 258 259 260 260
3 19 331 330 321 300 287 278 274 274 270 266 251 243 244 248 253 256 255 262 264 242 251 259 262 263 264 266 271 274 275 273 269 269 271 270 267 267 266 263 260 260 262
336 336 331 321 306 299 300 300 302 302 300 297 300 277 250 251 253 254 236 241 261 268 268 268 270 273 277 279 281 284 286 283 280 278 277 274 269 268 269 270 270 270 266
323 333 325 312 304 308 313 314 314 314 311 310 311 315 315 295 282 270 244 247 260 269 274 279 282 284 286 285 284 284 288 287 285 283 281 278 273 269 269 271 271 270 266
341 338 311 309 319 329 330 326 324 319 315 313 311 314 315 300 292 290 288 278 275 281 287 292 296 294 294 292 290 290 289 285 282 283 283 282 280 274 266 264 264 265 265
331 327 318 316 320 323 325 320 315 313 312 312 311 309 295 293 300 306 308 304 301 298 295 293 293 294 291 292 293 292 291 290 291 292 289 285 281 278 276 272 270 270 269
324 323 322 323 321 317 306 308 313 312 313 317 318 318 315 312 312 312 310 311 312 306 303 302 302 302 306 309 307 304 303 303 306 308 301 292 288 285 280 274 275 278 275
319 323 326 326 323 321 322 323 322 323 324 322 318 315 315 316 314 315 315 313 313 311 311 309 305 305 310 313 312 314 325 328 323 314 311 305 297 290 286 282 281 279 279
325 326 324 325 326 327 327 327 327 326 324 322 320 320 320 319 317 317 318 316 315 314 314 312 308 308 308 310 312 320 335 331 323 319 309 300 295 292 287 285 284 284 282
327 327 327 330 331 331 331 329 327 326 325 325 326 327 324 321 321 322 322 321 321 317 314 313 314 317 317 313 316 327 320 311 307 302 295 289 287 285 287 287 289 287 284
Height
1521 1524 1528 1529 1532 1535 1537 1539 1541 1542 1544 1545 1546 1548 1549 1550 1551 1552 1553 1554 1554 1554 1555 1555 1555 1556 1556 1556 1556 1557 1557 1556 1555 1555 1554 1553 1552 1551 1550 1548 1547 1545 1544
1519 1522 1525 1527 1530 1532 1535 1537 1538 1540 1541 1543 1544 1546 1547 1548 1549 1550 1550 1552 1552 1553 1553 1553 1553 1554 1553 1553 1553 1553 1553 1553 1553 1551 1550 1550 1549 1548 1546 1544 1543 1542 1541
1516 1519 1522 1525 1527 1529 1532 1534 1536 1537 1539 1541 1542 1543 1545 1546 1547 1548 1548 1549 1550 1550 1550 1550 1550 1550 1550 1550 1550 1550 1550 1550 1549 1548 1546 1546 1545 1544 1542 1541 1540 1538 1537
1513 1516 1518 1521 1524 1527 1529 1531 1533 1535 1536 1538 1539 1541 1542 1543 1544 1545 1546 1546 1547 1547 1548 1547 1547 1547 1547 1547 1547 1546 1546 1545 1545 1544 1542 1542 1541 1540 1539 1537 1535 1534 1533
1510 1513 1515 1518 1521 1523 1526 1528 1530 1532 1533 1535 1536 1538 1539 1540 1541 1542 1543 1543 1544 1544 1544 1544 1544 1544 1543 1543 1543 1543 1542 1541 1540 1539 1538 1537 1537 1535 1534 1532 1531 1529 1528
1506 1509 1512 1515 1517 1519 1522 1524 1526 1528 1530 1532 1533 1534 1535 1537 1538 1539 1539 1540 1540 1540 1540 1540 1540 1539 1539 1539 1539 1538 1538 1536 1535 1534 1533 1532 1531 1531 1529 1528 1526 1524 1522
1501 1505 1508 1510 1513 1515 1517 1520 1521 1524 1526 1527 1529 1530 1531 1532 1534 1535 1535 1536 1536 1536 1536 1535 1535 1535 1535 1534 1533 1533 1532 1531 1531 1530 1528 1527 1526 1525 1524 1522 1520 1519 1516
1497 1500 1503 1505 1508 1510 1513 1515 1517 1519 1521 1523 1524 1526 1527 1528 1528 1529 1530 1531 1530 1530 1530 1530 1530 1530 1530 1529 1529 1528 1526 1525 1525 1523 1522 1521 1520 1519 1518 1517 1515 1512 1510
1492 1495 1498 1501 1504 1506 1508 1510 1512 1514 1516 1517 1519 1521 1521 1522 1523 1524 1525 1525 1525 1524 1525 1524 1524 1524 1524 1524 1523 1521 1520 1519 1519 1518 1516 1514 1513 1513 1512 1511 1508 1506 1503
1486 1489 1493 1496 1499 1501 1503 1505 1508 1509 1511 1512 1514 1515 1516 1517 1518 1519 1519 1519 1519 1518 1518 1519 1519 1518 1518 1517 1516 1515 1513 1512 1512 1511 1509 1508 1506 1505 1505 1503 1502 1500 1497
1484 1486 1490 1492 1495 1497 1498 1501 1503 1505 1506 1507 1509 1509 1510 1511 1511 1512 1513 1513 1513 1513 1512 1513 1513 1512 1511 1510 1510 1508 1507 1506 1505 1503 1501 1500 1498 1497 1496 1495 1494 1493 1491
1481 1484 1486 1488 1491 1493 1494 1496 1498 1500 1501 1502 1503 1504 1504 1505 1506 1506 1506 1507 1507 1507 1506 1506 1506 1505 1504 1503 1502 1501 1500 1499 1497 1495 1493 1491 1490 1489 1489 1488 1487 1485 1483
1479 1481 1483 1485 1487 1489 1491 1493 1494 1496 1497 1498 1498 1498 1499 1499 1499 1499 1500 1500 1500 1500 1499 1499 1499 1498 1496 1495 1494 1493 1492 1490 1488 1486 1484 1483 1482 1481 1481 1481 1479 1478 1476
1477 1479 1482 1483 1485 1487 1488 1489 1490 1491 1492 1493 1494 1494 1494 1494 1494 1494 1494 1494 1494 1493 1492 1492 1491 1489 1488 1487 1486 1484 1483 1481 1480 1478 1476 1475 1474 1474 1473 1472 1471 1469 1467
1477 1478 1480 1481 1482 1484 1485 1485 1486 1487 1488 1489 1489 1490 1490 1489 1489 1489 1489 1488 1488 1487 1485 1484 1483 1482 1480 1479 1477 1476 1475 1473 1471 1469 1468 1467 1466 1465 1464 1463 1462 1461 1459
1477 1478 1479 1481 1481 1482 1482 1483 1483 1484 1484 1484 1485 1485 1484 1484 1484 1484 1483 1482 1481 1480 1479 1476 1475 1474 1473 1472 1470 1469 1467 1465 1463 1462 1460 1459 1458 1457 1456 1455 1454 1452 1450
1477 1478 1479 1480 1480 1480 1480 1480 1481 1480 1480 1480 1480 1480 1479 1479 1479 1478 1477 1476 1475 1473 1472 1470 1468 1467 1465 1464 1463 1461 1459 1458 1456 1455 1453 1451 1450 1448 1447 1446 1445 1443 1442
1478 1478 1478 1479 1478 1478 1478 1478 1477 1477 1476 1475 1475 1475 1474 1473 1473 1472 1471 1469 1468 1466 1464 1463 1461 1460 1458 1457 1455 1453 1451 1450 1448 1447 1445 1444 1442 1440 1439 1437 1436 1435 1433
1478 1478 1478 1477 1477 1476 1476 1475 1475 1474 1473 1472 1471 1470 1469 1468 1468 1467 1465 1463 1461 1460 1458 1457 1455 1453 1452 1450 1448 1446 1444 1442 1441 1439 1437 1436 1434 1432 1431 1429 1428 1426 1425
1478 1477 1477 1476 1476 1475 1474 1473 1472 1471 1470 1469 1468 1467 1465 1464 1462 1461 1460 1458 1456 1453 1452 1450 1448 1447 1445 1443 1441 1439 1437 1435 1433 1431 1430 1428 1426 1425 1423 1422 1420 1419 1418
1478 1477 1476 1475 1474 1473 1472 1471 1470 1468 1467 1465 1464 1463 1461 1460 1458 1457 1455 1453 1450 1448 1445 1444 1442 1440 1438 1436 1434 1432 1430 1427 1425 1424 1422 1420 1419 1417 1416 1414 1413 1412 1410
1477 1476 1475 1474 1473 1471 1470 1468 1467 1466 1464 1462 1461 1459 1457 1455 1453 1452 1449 1447 1444 1442 1440 1437 1435 1434 1432 1429 1427 1425 1422 1420 1418 1416 1414 1413 1411 1410 1408 1407 1406 1404 1403
1476 1475 1473 1472 1470 1469 1467 1465 1464 1462 1461 1459 1457 1455 1453 1451 1448 1446 1444 1441 1439 1436 1434 1431 1429 1427 1425 1423 1420 1418 1415 1413 1411 1409 1407 1406 1404 1403 1402 1400 1399 1398 1397
1474 1472 1471 1469 1468 1466 1464 1462 1461 1459 1457 1455 1453 1450 1448 1446 1443 1441 1438 1436 1433 1430 1428 1425 1423 1420 1418 1416 1413 1411 1408 1406 1404 1402 1401 1399 1397 1396 1395 1393 1392 1391 1390
1471 1470 1468 1467 1465 1463 1461 1459 1457 1456 1453 1451 1449 1446 1444 1441 1439 1436 1433 1430 1427 1424 1421 1419 1416 1414 1411 1409 1406 1403 1401 1399 1397 1395 1393 1392 1390 1389 1387 1386 1385 1384 1383
1469 1468 1466 1464 1462 1460 1458 1456 1454 1452 1450 1447 1445 1442 1439 1437 1434 1431 1428 1425 1421 1418 1415 1413 1410 1407 1404 1402 1399 1396 1394 1391 1389 1388 1386 1384 1383 1381 1381 1379 1378 1377 1376